TimeEDT,TemperatureF,Dew PointF,Humidity,Sea Level PressureIn,VisibilityMPH,Wind Direction,Wind SpeedMPH,Gust SpeedMPH,PrecipitationIn,Events,Conditions,WindDirDegrees,DateUTC
12:51 AM,64.9,61.0,87,30.18,10.0,Calm,Calm,-,N/A,,Clear,0,2012-10-04 04:51:00
1:51 AM,64.9,60.1,84,30.18,10.0,NNW,3.5,-,N/A,,Clear,330,2012-10-04 05:51:00
2:51 AM,62.6,60.8,94,30.19,10.0,Calm,Calm,-,N/A,,Clear,0,2012-10-04 06:51:00
3:51 AM,63.0,60.1,90,30.18,10.0,Calm,Calm,-,N/A,,Clear,0,2012-10-04 07:51:00
4:51 AM,63.0,60.1,90,30.19,10.0,Calm,Calm,-,N/A,,Clear,0,2012-10-04 08:51:00
5:51 AM,62.1,59.0,90,30.22,10.0,Calm,Calm,-,N/A,,Clear,0,2012-10-04 09:51:00
6:51 AM,61.0,59.0,93,30.22,10.0,Calm,Calm,-,N/A,,Clear,0,2012-10-04 10:51:00
7:51 AM,61.0,59.0,93,30.24,8.0,Calm,Calm,-,N/A,,Clear,0,2012-10-04 11:51:00
8:51 AM,64.9,61.0,87,30.25,5.0,Calm,Calm,-,N/A,,Clear,0,2012-10-04 12:51:00
9:51 AM,70.0,64.0,81,30.26,8.0,Calm,Calm,-,N/A,,Clear,0,2012-10-04 13:51:00
10:51 AM,75.0,64.0,69,30.26,10.0,Variable,3.5,-,N/A,,Clear,0,2012-10-04 14:51:00
11:51 AM,77.0,60.8,57,30.26,10.0,Variable,3.5,-,N/A,,Partly Cloudy,0,2012-10-04 15:51:00
12:51 PM,79.0,57.0,47,30.24,10.0,Calm,Calm,-,N/A,,Clear,0,2012-10-04 16:51:00
1:51 PM,81.0,55.9,42,30.22,10.0,Variable,6.9,-,N/A,,Clear,0,2012-10-04 17:51:00
2:51 PM,82.9,55.9,39,30.19,10.0,ENE,8.1,-,N/A,,Clear,70,2012-10-04 18:51:00
3:51 PM,84.9,55.9,37,30.17,10.0,NNE,6.9,-,N/A,,Clear,20,2012-10-04 19:51:00
4:51 PM,84.0,54.0,35,30.17,10.0,Calm,Calm,-,N/A,,Clear,0,2012-10-04 20:51:00
5:51 PM,84.2,53.6,35,30.17,10.0,NE,6.9,-,N/A,,Clear,40,2012-10-04 21:51:00
6:51 PM,82.0,54.0,38,30.16,10.0,NE,4.6,-,N/A,,Clear,40,2012-10-04 22:51:00
7:51 PM,78.1,57.0,48,30.16,10.0,NE,3.5,-,N/A,,Clear,40,2012-10-04 23:51:00
8:51 PM,72.0,60.1,66,30.18,10.0,Calm,Calm,-,N/A,,Clear,0,2012-10-05 00:51:00
9:51 PM,73.4,59.0,61,30.20,10.0,NE,3.5,-,N/A,,Clear,50,2012-10-05 01:51:00
10:51 PM,69.8,60.8,73,30.22,10.0,Calm,Calm,-,N/A,,Clear,0,2012-10-05 02:51:00
11:51 PM,66.0,60.1,81,30.20,10.0,Calm,Calm,-,N/A,,Clear,0,2012-10-05 03:51:00